Starlink 36980

operational
NORAD ID: 68146 Int'l Des: 2026-049 Owner: SPXS Country: US Constellation: starlink
LEOCIRCULARRETROGRADE

Starlink 36980について

説明を読み込み中...

リアルタイム位置

3D地球を読み込み中...

次回通過

高度履歴

Altitude vs Time

uPlot chart will show altitude changes over time

軌道要素

1 68146C 26049E 26072.93520833 .00506310 00000+0 59075-3 0 721
2 68146 97.2823 91.9370 0009981 253.5376 235.8732 16.08146063 11
Epoch: Mar 13, 2026 • Age: 71 hours

現在のステータス

高度 265.4 km
速度 7.75 km/s
衛星直下点 73.75°N, 97.32°W
打ち上げ日 Mar 13, 2026
運用期間 2 days
タイプ internet

技術仕様

分類 Payload
質量 575.00 kg
乾燥質量 530.00 kg
総質量 575.00 kg
長さ 0.30 m
直径 4.10 m
スパン 29.00 m
形状 Box + pan
製造者 SPXS
バスタイプ Starlink V2MO
フェーズステータス In Orbit
所有者/国 SPXS/US

大規模コンステレーション

Loading constellations...